TimeCST,TemperatureF,Dew PointF,Humidity,Sea Level PressureIn,VisibilityMPH,Wind Direction,Wind SpeedMPH,Gust SpeedMPH,PrecipitationIn,Events,Conditions,WindDirDegrees,DateUTC
12:55 AM,39.9,32.0,73,30.10,10.0,SSE,13.8,23.0,N/A,,Clear,160,2012-11-17 06:55:00
1:55 AM,39.9,32.0,73,30.09,10.0,SSE,15.0,21.9,N/A,,Clear,160,2012-11-17 07:55:00
2:55 AM,39.0,32.0,76,30.08,10.0,SSE,15.0,-,N/A,,Clear,160,2012-11-17 08:55:00
3:55 AM,39.9,33.1,77,30.06,10.0,South,13.8,21.9,N/A,,Clear,170,2012-11-17 09:55:00
4:55 AM,39.9,33.1,77,30.06,10.0,SSE,13.8,19.6,N/A,,Clear,160,2012-11-17 10:55:00
5:55 AM,39.9,33.1,77,30.06,10.0,SSE,12.7,21.9,N/A,,Clear,160,2012-11-17 11:55:00
6:55 AM,39.9,33.1,77,30.06,10.0,SSE,10.4,-,N/A,,Clear,160,2012-11-17 12:55:00
7:55 AM,39.9,33.1,77,30.07,10.0,SSE,11.5,-,N/A,,Clear,160,2012-11-17 13:55:00
8:55 AM,42.1,34.0,73,30.06,10.0,SSE,10.4,-,N/A,,Clear,150,2012-11-17 14:55:00
9:55 AM,46.9,35.1,63,30.07,10.0,South,10.4,18.4,N/A,,Clear,180,2012-11-17 15:55:00
10:55 AM,50.0,35.1,57,30.06,10.0,SSE,8.1,-,N/A,,Clear,160,2012-11-17 16:55:00
11:55 AM,52.0,35.1,53,30.03,10.0,South,13.8,19.6,N/A,,Clear,180,2012-11-17 17:55:00
12:55 PM,52.0,35.1,53,30.01,10.0,South,9.2,-,N/A,,Scattered Clouds,190,2012-11-17 18:55:00
1:55 PM,55.0,35.1,47,29.99,10.0,South,17.3,23.0,N/A,,Partly Cloudy,180,2012-11-17 19:55:00
2:55 PM,57.0,34.0,42,29.98,10.0,South,12.7,21.9,N/A,,Clear,170,2012-11-17 20:55:00
3:55 PM,57.0,35.1,44,29.99,10.0,South,12.7,18.4,N/A,,Clear,170,2012-11-17 21:55:00
4:55 PM,54.0,35.1,49,29.99,10.0,SSE,9.2,-,N/A,,Clear,160,2012-11-17 22:55:00
5:55 PM,48.0,34.0,58,30.00,10.0,SE,6.9,-,N/A,,Clear,140,2012-11-17 23:55:00
6:55 PM,48.0,34.0,58,30.00,10.0,SSE,11.5,-,N/A,,Clear,160,2012-11-18 00:55:00
7:55 PM,46.0,34.0,63,30.01,10.0,South,9.2,-,N/A,,Clear,170,2012-11-18 01:55:00
8:55 PM,44.1,33.1,65,30.01,10.0,South,8.1,-,N/A,,Clear,180,2012-11-18 02:55:00
9:55 PM,42.1,33.1,70,30.00,10.0,South,9.2,-,N/A,,Clear,170,2012-11-18 03:55:00
10:55 PM,37.9,32.0,79,29.99,10.0,South,6.9,-,N/A,,Clear,170,2012-11-18 04:55:00
11:55 PM,37.9,33.1,83,30.00,10.0,South,8.1,-,N/A,,Clear,170,2012-11-18 05:55:00